Location: Goettingen
(51.5300°N, 9.9433°E)
Time: 00:17:57
(UTC+02:00)

ISS - Visible Passes

Search period start: 22 October 2019 00:00
Search period end: 31 October 2019 23:00
Orbit: 411 x 421 km, 51.6° (Epoch: 21 October)

Date Brightness Start Highest point End Pass type
(mag) Time Alt. Az. Time Alt. Az. Time Alt. Az.
24 Oct -0.4 06:51:38 10° SSE 06:52:19 10° SE 06:53:00 10° SE visible
26 Oct -1.4 06:48:48 10° SSW 06:51:26 21° SE 06:54:03 10° E visible
27 Oct -1.0 05:01:01 10° S 05:03:00 15° SE 05:04:59 10° ESE visible
28 Oct -2.5 05:47:32 10° SW 05:50:39 39° SSE 05:53:49 10° E visible
29 Oct -2.1 05:01:14 25° S 05:02:07 28° SSE 05:05:04 10° E visible
30 Oct -1.0 04:14:50 17° ESE 04:14:50 17° ESE 04:16:10 10° E visible
30 Oct -3.5 05:47:44 19° WSW 05:49:57 65° SSE 05:53:18 10° E visible
31 Oct -3.2 05:01:13 50° SSE 05:01:20 50° SSE 05:04:37 10° E visible
31 Oct -3.7 06:34:37 10° W 06:38:00 86° N 06:41:21 10° E visible
